Location: Unspecified
(0.0000°N, 0.0000°E)
Time: 05:35:19
(UTC+00:00)

Vanguard 3 - All Passes

Search period start: 22 December 2014 00:00
Search period end: 01 January 2015 00:00
Orbit: 508 x 3276 km, 33.3° (Epoch: 20 December)

Date Brightness Start Highest point End Pass type
(mag) Time Alt. Az. Time Alt. Az. Time Alt. Az.
22 Dec - 00:18:17 10° SW 00:32:29 47° SSE 00:40:39 10° E visible
22 Dec - 02:35:56 10° WSW 02:46:07 49° NW 02:51:54 10° NE night (unlit)
22 Dec - 11:37:56 10° N 11:43:22 25° NE 11:51:35 10° E daylight
22 Dec - 13:47:25 10° WNW 13:56:06 82° SW 14:11:59 10° SE daylight
22 Dec - 16:01:32 10° W 16:12:50 35° SSW 16:29:08 10° SE daylight
22 Dec - 18:22:23 10° SW 18:34:02 19° S 18:46:39 10° SSE visible
22 Dec - 20:45:17 10° SSW 20:57:42 19° S 21:08:19 10° SE visible
22 Dec - 23:03:02 10° SW 23:17:58 35° SSE 23:27:39 10° E visible
23 Dec - 01:20:06 10° SW 01:33:40 90° SE 01:40:54 10° NE visible
23 Dec - 03:40:41 10° W 03:45:37 17° NW 03:49:20 10° N night (unlit)
23 Dec - 12:36:05 10° NW 12:43:06 61° NE 12:55:56 10° ESE daylight
23 Dec - 14:48:01 10° W 14:57:44 47° SSW 15:13:50 10° SE daylight
23 Dec - 17:05:34 10° WSW 17:16:50 23° SSW 17:30:48 10° SSE daylight
23 Dec - 19:28:27 10° SW 19:40:05 18° S 19:51:19 10° SE visible
23 Dec - 21:47:40 10° SSW 22:02:24 27° SSE 22:13:21 10° ESE visible
24 Dec - 00:04:31 10° SW 00:20:13 59° SSE 00:29:04 10° ENE visible
24 Dec - 02:23:13 10° WSW 02:33:40 40° NW 02:39:48 10° NNE night (unlit)
24 Dec - 11:25:38 10° NNW 11:30:56 30° NE 11:39:19 10° E daylight
24 Dec - 13:35:37 10° WNW 13:43:40 67° SSW 13:58:24 10° SE daylight
24 Dec - 15:50:21 10° WSW 16:00:38 29° SSW 16:15:16 10° SSE daylight
24 Dec - 18:11:20 10° SW 18:22:12 18° S 18:34:03 10° SSE visible
24 Dec - 20:32:06 10° SSW 20:45:46 22° SSE 20:57:28 10° ESE visible
24 Dec - 22:49:08 10° SW 23:05:43 42° SSE 23:16:16 10° E visible
25 Dec - 01:06:46 10° WSW 01:21:11 75° NW 01:28:59 10° NE visible
25 Dec - 03:29:14 10° WNW 03:33:19 14° NW 03:36:36 10° NNW night (unlit)
25 Dec - 10:17:49 10° NNE 10:19:01 11° NE 10:20:19 10° NE daylight
25 Dec - 12:24:06 10° NW 12:30:39 76° NE 12:42:49 10° ESE daylight
25 Dec - 14:36:35 10° W 14:45:30 38° SSW 14:59:56 10° SE daylight
25 Dec - 16:54:46 10° SW 17:04:53 20° S 17:17:19 10° SSE daylight
25 Dec - 19:16:15 10° SSW 19:28:16 19° S 19:40:00 10° SE visible
25 Dec - 21:33:54 10° SSW 21:50:11 32° SSE 22:02:12 10° E visible
25 Dec - 23:50:49 10° SW 00:07:45 72° SSE 00:17:18 10° ENE visible
26 Dec - 02:10:36 10° WSW 02:21:08 33° NW 02:27:35 10° NNE night (unlit)
26 Dec - 11:13:25 10° NNW 11:18:31 36° NE 11:26:54 10° ESE daylight
26 Dec - 13:23:58 10° WNW 13:31:24 53° SSW 13:44:44 10° SE daylight
26 Dec - 15:39:24 10° WSW 15:48:35 24° SSW 16:01:19 10° SSE daylight
26 Dec - 18:00:09 10° SW 18:10:26 17° S 18:21:43 10° SE visible
26 Dec - 20:18:48 10° SSW 20:33:40 25° SSE 20:46:28 10° ESE visible
26 Dec - 22:35:17 10° SW 22:53:14 51° SSE 23:04:40 10° ENE visible
27 Dec - 00:53:30 10° WSW 01:08:33 63° NW 01:16:55 10° NE visible
27 Dec - 03:18:15 10° WNW 03:21:02 12° NW 03:23:27 10° NNW night (unlit)
27 Dec - 10:04:17 10° NNE 10:06:47 13° NE 10:09:47 10° ENE daylight
27 Dec - 12:12:14 10° WNW 12:18:19 86° SW 12:29:36 10° SE daylight
27 Dec - 14:25:22 10° W 14:33:25 30° SSW 14:45:57 10° SSE daylight
27 Dec - 16:44:07 10° SW 16:53:03 17° S 17:03:54 10° SSE daylight
27 Dec - 19:03:46 10° SSW 19:16:21 20° SSE 19:28:48 10° SE visible
27 Dec - 21:20:10 10° SW 21:37:44 38° SSE 21:50:47 10° E visible
27 Dec - 23:37:10 10° SW 23:55:04 85° SE 00:05:21 10° ENE visible
28 Dec - 01:58:06 10° W 02:08:34 29° NW 02:15:15 10° NNE night (unlit)
28 Dec - 11:01:17 10° NNW 11:06:09 46° NE 11:14:21 10° ESE daylight
28 Dec - 13:12:29 10° W 13:19:17 41° SSW 13:31:00 10° SE daylight
28 Dec - 15:28:44 10° SW 15:36:42 19° SSW 15:47:19 10° SSE daylight
28 Dec - 17:48:42 10° SSW 17:58:40 17° S 18:09:41 10° SE daylight
28 Dec - 20:05:26 10° SSW 20:21:22 29° SSE 20:35:14 10° ESE visible
28 Dec - 22:21:31 10° SW 22:40:33 61° SSE 22:52:50 10° ENE visible
29 Dec - 00:40:20 10° WSW 00:55:47 53° NW 01:04:43 10° NE visible
29 Dec - 09:51:28 10° N 09:54:31 17° NE 09:58:25 10° E daylight
29 Dec - 12:00:29 10° WNW 12:06:07 65° SSW 12:16:19 10° SE daylight
29 Dec - 14:14:26 10° WSW 14:21:29 23° SSW 14:31:52 10° SSE daylight
29 Dec - 16:33:31 10° SSW 16:41:20 15° S 16:50:37 10° SSE daylight
29 Dec - 18:51:03 10° SSW 19:04:16 22° SSE 19:17:35 10° ESE visible
29 Dec - 21:06:30 10° SW 21:25:05 44° SSE 21:39:07 10° E visible
29 Dec - 23:23:38 10° SW 23:42:13 83° NW 23:53:14 10° NE visible
30 Dec - 01:45:46 10° W 01:55:58 25° NW 02:02:49 10° N night (unlit)
30 Dec - 10:49:15 10° NW 10:53:53 63° NE 11:01:41 10° ESE daylight
30 Dec - 13:01:12 10° W 13:07:19 31° SSW 13:17:11 10° SSE daylight
30 Dec - 15:18:24 10° SW 15:24:56 16° S 15:33:12 10° SSE daylight
30 Dec - 17:36:56 10° SSW 17:46:50 17° SSE 17:57:55 10° SE daylight
30 Dec - 19:52:04 10° SSW 20:08:50 33° SSE 20:23:46 10° E visible
30 Dec - 22:07:51 10° SW 22:27:39 71° SE 22:40:49 10° ENE visible
31 Dec - 00:27:17 10° WSW 00:42:55 46° NW 00:52:24 10° NNE visible
31 Dec - 09:38:55 10° NNW 09:42:15 23° NE 09:46:42 10° E daylight
31 Dec - 11:48:53 10° WNW 11:54:05 47° SSW 12:02:58 10° SE daylight
31 Dec - 14:03:51 10° SW 14:09:40 18° SSW 14:17:36 10° SSE daylight
31 Dec - 16:22:52 10° SSW 16:29:38 14° S 16:37:34 10° SSE daylight
31 Dec - 18:38:12 10° SSW 18:52:01 24° SSE 19:06:15 10° ESE visible
31 Dec - 20:52:54 10° SW 21:12:12 52° SSE 21:27:13 10° ENE visible
31 Dec - 23:10:12 10° WSW 23:29:12 72° NW 23:40:58 10° NE visible
